GW2278 Weather Reports


time (UTC)temp
C
wind
direction
speed
KPH
gust
KPH
rain 1hr
cm
rain 24hr
cm
rain mn
cm
humidity
%
barometer
mb
20260504195428 20 178 27.4 27.4 0.00 0.00 0.00 37 1007.1
20260504194924 20 183 9.7 24.1 0.00 0.00 0.00 38 1007.6
20260504194420 20 203 11.3 32.2 0.00 0.00 0.00 37 1007.3
20260504193916 20 208 9.7 35.4 0.00 0.00 0.00 37 1007.4
20260504193414 20 230 0.0 9.7 0.00 0.00 0.00 37 1007.2
20260504192913 20 208 14.5 25.7 0.00 0.00 0.00 36 1007.4
20260504192410 20 262 11.3 20.9 0.00 0.00 0.00 35 1007.3
20260504191908 21 234 6.4 20.9 0.00 0.00 0.00 36 1007.2
20260504191406 21 351 3.2 20.9 0.00 0.00 0.00 36 1007.3
20260504190901 21 294 6.4 16.1 0.00 0.00 0.00 34 1007.3
20260504190357 20 250 4.8 27.4 0.00 0.00 0.00 39 1007.3
20260504185854 20 220 12.9 20.9 0.00 0.00 0.00 34 1007.4
20260504185351 20 203 14.5 30.6 0.00 0.00 0.00 35 1007.5
20260504184847 20 267 8.0 22.5 0.00 0.00 0.00 34 1007.3
20260504184343 19 198 9.7 22.5 0.00 0.00 0.00 34 1007.6
20260504183839 20 175 14.5 27.4 0.00 0.00 0.00 34 1007.8
20260504183336 21 284 1.6 22.5 0.00 0.00 0.00 37 1007.6
20260504182834 20 257 8.0 22.5 0.00 0.00 0.00 35 1007.8
20260504182331 21 238 4.8 11.3 0.00 0.00 0.00 35 1007.9
20260504181828 19 233 11.3 22.5 0.00 0.00 0.00 35 1007.6
20260504181326 20 215 12.9 32.2 0.00 0.00 0.00 35 1008.0
20260504180824 20 235 11.3 24.1 0.00 0.00 0.00 35 1007.9
20260504180322 19 328 6.4 19.3 0.00 0.00 0.00 34 1007.9
20260504175820 20 190 6.4 37.0 0.00 0.00 0.00 35 1008.1
20260504175317 19 188 14.5 35.4 0.00 0.00 0.00 35 1007.6
20260504174815 19 278 6.4 32.2 0.00 0.00 0.00 34 1008.1
20260504174312 18 200 9.7 20.9 0.00 0.00 0.00 35 1008.2
20260504173809 18 230 19.3 37.0 0.00 0.00 0.00 33 1008.3
20260504173305 19 264 8.0 14.5 0.00 0.00 0.00 35 1008.3
20260504172803 18 168 8.0 25.7 0.00 0.00 0.00 33 1008.1
20260504172259 19 248 9.7 29.0 0.00 0.00 0.00 34 1008.2
20260504171755 18 307 8.0 22.5 0.00 0.00 0.00 32 1008.5
20260504171252 18 292 3.2 24.1 0.00 0.00 0.00 35 1008.5
20260504170749 19 191 19.3 20.9 0.00 0.00 0.00 34 1008.6
20260504170246 18 285 8.0 24.1 0.00 0.00 0.00 34 1008.5
20260504160205 18 229 29.0 30.6 0.00 0.00 0.00 37 1009.3
20260504151133 16 354 11.3 25.7 0.00 0.00 0.00 38 1009.4
20260504150630 17 218 25.7 25.7 0.00 0.00 0.00 38 1009.3
20260504150127 16 231 9.7 40.2 0.00 0.00 0.00 38 1009.4
20260504141055 15 278 8.0 19.3 0.00 0.00 0.00 42 1010.0
20260504140552 15 271 11.3 33.8 0.00 0.00 0.00 43 1010.0
20260504130516 13 257 4.8 20.9 0.00 0.00 0.00 50 1010.5
20260504110404 9 188 4.8 14.5 0.00 0.00 0.00 56 1010.4
20260504100321 7 223 6.4 14.5 0.00 0.00 0.00 60 1010.4
20260504081714 6 179 4.8 8.0 0.00 0.00 0.00 61 1009.5
20260504081211 6 167 3.2 3.2 0.00 0.00 0.00 62 1009.7
20260504080707 6 179 3.2 3.2 0.00 0.00 0.00 60 1009.7
20260504080204 6 164 0.0 6.4 0.00 0.00 0.00 61 1009.9
20260504070131 5 326 0.0 1.6 0.00 0.00 0.00 75 1009.6
20260504050520 3 44 0.0 4.8 0.00 0.00 0.00 68 1009.8
20260504050017 3 91 1.6 4.8 0.00 0.00 0.00 71 1009.9
20260504045514 3 71 0.0 4.8 0.00 0.00 0.00 71 1009.9
20260504045009 4 113 0.0 6.4 0.00 0.00 0.00 67 1009.7
20260504044507 3 103 0.0 4.8 0.00 0.00 0.00 66 1009.6
20260504044004 3 49 0.0 4.8 0.00 0.00 0.00 69 1009.9
20260504043500 3 16 3.2 4.8 0.00 0.00 0.00 68 1010.1
20260504042958 3 113 0.0 3.2 0.00 0.00 0.00 69 1009.9
20260504042454 3 56 1.6 3.2 0.00 0.00 0.00 73 1010.1
20260504041951 3 83 0.0 4.8 0.00 0.00 0.00 76 1010.1
20260504041448 3 58 1.6 4.8 0.00 0.00 0.00 76 1009.8
20260504040943 3 68 1.6 4.8 0.00 0.00 0.00 75 1009.9
20260504040441 3 65 3.2 4.8 0.00 0.00 0.00 74 1009.7
20260504035937 3 347 0.0 3.2 0.00 0.00 0.00 70 1009.7
20260504035435 3 66 0.0 3.2 0.00 0.00 0.00 66 1009.5
20260504034931 3 34 0.0 3.2 0.00 0.00 0.00 68 1009.6
20260504034429 4 183 0.0 4.8 0.00 0.00 0.00 64 1009.7
20260504033926 4 37 1.6 3.2 0.00 0.00 0.00 65 1009.6
20260504033423 4 77 3.2 4.8 0.00 0.00 0.00 65 1009.4
20260504032920 4 13 3.2 4.8 0.00 0.00 0.00 65 1009.5
20260504032417 5 78 3.2 3.2 0.00 0.00 0.00 66 1009.4
20260504031914 5 60 3.2 4.8 0.00 0.00 0.00 65 1009.6
20260504031411 5 67 4.8 4.8 0.00 0.00 0.00 64 1009.7
20260504030908 5 44 1.6 4.8 0.00 0.00 0.00 64 1009.6
20260504030405 5 53 0.0 3.2 0.00 0.00 0.00 66 1009.6
20260504025900 5 83 3.2 4.8 0.00 0.00 0.00 68 1009.6
20260504025358 5 123 1.6 4.8 0.00 0.00 0.00 66 1009.5
20260504024854 5 25 1.6 6.4 0.00 0.00 0.00 67 1009.6
20260504024351 5 34 1.6 4.8 0.00 0.00 0.00 64 1009.6
20260504023848 5 89 0.0 3.2 0.00 0.00 0.00 63 1009.5
20260504023345 4 111 0.0 3.2 0.00 0.00 0.00 65 1009.4
20260504022840 5 42 0.0 3.2 0.00 0.00 0.00 64 1009.5
20260504022337 5 60 0.0 3.2 0.00 0.00 0.00 62 1009.1
20260504021834 5 97 0.0 3.2 0.00 0.00 0.00 61 1009.3
20260504021331 5 51 0.0 1.6 0.00 0.00 0.00 65 1009.5
20260504020828 5 329 0.0 3.2 0.00 0.00 0.00 66 1009.3
20260504020325 5 99 0.0 1.6 0.00 0.00 0.00 62 1009.1
20260504015821 5 12 1.6 3.2 0.00 0.00 0.00 63 1009.1
20260504015317 5 21 1.6 3.2 0.00 0.00 0.00 64 1009.3
20260504014814 5 71 1.6 4.8 0.00 0.00 0.00 64 1009.2
20260504014309 5 38 0.0 3.2 0.00 0.00 0.00 63 1009.2
20260504013808 5 343 0.0 1.6 0.00 0.00 0.00 61 1009.1
20260504013305 5 27 0.0 3.2 0.00 0.00 0.00 60 1009.0
20260504012801 6 63 0.0 3.2 0.00 0.00 0.00 57 1009.0
20260504012259 6 18 3.2 4.8 0.00 0.00 0.00 55 1008.9
20260504011756 6 10 3.2 4.8 0.00 0.00 0.00 58 1008.9
20260504011253 5 27 3.2 4.8 0.00 0.00 0.00 61 1008.9
20260504010748 6 2 1.6 3.2 0.00 0.00 0.00 61 1008.8
20260504010244 6 343 0.0 3.2 0.00 0.00 0.00 56 1008.8
20260504005741 6 37 3.2 4.8 0.00 0.00 0.00 54 1008.6
20260504005238 6 21 1.6 4.8 0.00 0.00 0.00 54 1008.6
20260504004736 6 17 3.2 4.8 0.00 0.00 0.00 54 1008.4
20260504004233 6 346 0.0 4.8 0.00 0.00 0.00 53 1008.4
20260504003729 7 36 3.2 4.8 0.00 0.00 0.00 52 1008.3
20260504003226 7 19 3.2 4.8 0.00 0.00 0.00 52 1008.3
20260504002723 7 38 0.0 6.4 0.00 0.00 0.00 51 1008.1
20260504002220 7 30 3.2 4.8 0.00 0.00 0.00 52 1008.2
20260504001718 7 23 1.6 3.2 0.00 0.00 0.00 52 1008.0
20260504001214 7 39 4.8 6.4 0.00 0.00 0.00 51 1007.8
20260504000711 7 125 0.0 4.8 0.00 0.00 0.00 50 1007.6
20260504000208 7 132 0.0 4.8 0.00 0.00 0.00 52 1007.6
20260503235707 7 53 1.6 3.2 0.00 0.00 0.00 49 1007.5
20260503235203 8 79 3.2 3.2 0.00 0.00 0.00 49 1007.7
20260503234701 8 106 0.0 3.2 0.00 0.00 0.00 48 1007.7
20260503234159 8 66 1.6 4.8 0.00 0.00 0.00 47 1007.7
20260503233655 8 79 0.0 4.8 0.00 0.00 0.00 47 1007.8
20260503233151 8 315 0.0 3.2 0.00 0.00 0.00 48 1007.8
20260503232648 9 339 0.0 4.8 0.00 0.00 0.00 47 1007.7
20260503232146 10 37 0.0 4.8 0.00 0.00 0.00 45 1007.6
20260503231644 10 342 1.6 11.3 0.00 0.00 0.00 46 1007.5
20260503231140 10 301 0.0 8.0 0.00 0.00 0.00 43 1007.6
20260503230637 10 20 4.8 9.7 0.00 0.00 0.00 43 1007.6
20260503230134 10 34 3.2 11.3 0.00 0.00 0.00 44 1007.6
20260503225631 10 67 1.6 4.8 0.00 0.00 0.00 44 1007.7
20260503225131 10 176 3.2 19.3 0.00 0.00 0.00 43 1007.4
20260503224629 10 354 4.8 9.7 0.00 0.00 0.00 46 1007.4
20260503224126 10 38 3.2 4.8 0.00 0.00 0.00 47 1007.2
20260503223624 10 303 1.6 9.7 0.00 0.00 0.00 43 1007.5
20260503223120 10 3 4.8 8.0 0.00 0.00 0.00 44 1007.1
20260503222618 10 356 3.2 12.9 0.00 0.00 0.00 43 1007.2
20260503222115 10 239 6.4 12.9 0.00 0.00 0.00 43 1007.2
20260503221614 10 307 3.2 11.3 0.00 0.00 0.00 43 1007.4
20260503221111 10 54 1.6 8.0 0.00 0.00 0.00 44 1007.2
20260503220607 10 329 6.4 17.7 0.00 0.00 0.00 44 1007.1
20260503220104 10 145 1.6 9.7 0.00 0.00 0.00 46 1007.1
20260503215601 10 329 6.4 9.7 0.00 0.00 0.00 45 1007.3
20260503215057 10 26 3.2 14.5 0.00 0.00 0.00 44 1007.3
20260503214556 10 324 3.2 11.3 0.00 0.00 0.00 45 1007.1
20260503214052 10 241 4.8 17.7 0.00 0.00 0.00 45 1007.3
20260503213551 10 346 3.2 12.9 0.00 0.00 0.00 44 1007.0
20260503213047 10 338 6.4 9.7 0.00 0.00 0.00 45 1007.2
20260503212544 9 218 4.8 9.7 0.00 0.00 0.00 47 1007.0
20260503212042 9 128 1.6 16.1 0.00 0.00 0.00 44 1007.0
20260503211539 10 298 8.0 16.1 0.00 0.00 0.00 46 1007.0
20260503211034 10 4 3.2 12.9 0.00 0.00 0.00 45 1007.1
20260503210531 10 280 9.7 20.9 0.00 0.00 0.00 43 1007.0
20260503210027 10 32 4.8 20.9 0.00 0.00 0.00 46 1007.0
20260503205524 10 284 11.3 17.7 0.00 0.00 0.00 42 1006.9
20260503205020 10 27 3.2 17.7 0.00 0.00 0.00 43 1006.6
20260503204517 10 295 8.0 12.9 0.00 0.00 0.00 43 1006.7
20260503204014 10 265 4.8 35.4 0.00 0.00 0.00 45 1006.6
20260503203512 10 298 0.0 16.1 0.00 0.00 0.00 45 1006.9
20260503203009 10 223 4.8 22.5 0.00 0.00 0.00 42 1006.8
20260503202506 10 334 12.9 16.1 0.00 0.00 0.00 44 1006.6
20260503202004 11 322 14.5 14.5 0.00 0.00 0.00 44 1006.6
20260503201502 11 204 0.0 11.3 0.00 0.00 0.00 41 1006.5
20260503200959 12 186 8.0 14.5 0.00 0.00 0.00 40 1006.5
20260503200455 11 293 1.6 17.7 0.00 0.00 0.00 40 1006.5
20260503195952 12 268 8.0 12.9 0.00 0.00 0.00 40 1006.3
20260503195449 12 313 4.8 24.1 0.00 0.00 0.00 39 1006.3